Powrót do katalogu

FENGYUN 1C DEB

AktywnySSO
NORAD 38492·DEBRIS·🇨🇳 China

Wystrzelony May 10, 1999 z Taiyuan Satellite Launch Center

Loading…

Następne Przeloty (najbliższe 24 godziny)

TLE

NieaktualneSource: Space-Track

Epoka: Aug 28, 2026, 09:11 UTC

1 38492U 99025ESB 26240.38327796  .00005335  00000-0  31354-2 0  9994
2 38492  98.6138 300.2664 0229374 152.0000 209.3727 13.96131064596104

Śledź FENGYUN 1C DEB w czasie rzeczywistym z AllMySat

Download on the App Store